Weather History for Springfield, MO

Change the Weather History Date:

Tuesday, January 1, 2013

  Actual Average Record
Temperature  
Mean Temperature 26 °F 33 °F  
Max Temperature 34 °F 42 °F 70 °F (1965)
Min Temperature 17 °F 23 °F -8 °F (1928)
Degree Days  
Heating Degree Days 39 32  
Month to date heating degree days 39 32  
Since 1 July heating degree days 1686 1842  
Cooling Degree Days 0 0  
Month to date cooling degree days 0 0  
Year to date cooling degree days 0 0  
Moisture  
Dew Point 25 °F    
Average Humidity 91    
Maximum Humidity 100    
Minimum Humidity 81    
Precipitation  
Precipitation T in 0.09 in 1.84 in (1892)
Month to date precipitation T 0.09  
Year to date precipitation T 0.09  
Snow  
Snow T in - - ()
Month to date snowfall T  
Since 1 July snowfall 1.3  
Snow Depth 0.00 in    
Sea Level Pressure  
Sea Level Pressure 30.17 in    
Wind  
Wind Speed 9 mph (North)    
Max Wind Speed 17 mph    
Max Gust Speed 20 mph    
Visibility 6 miles    
Events      
T = Trace of Precipitation, MM = Missing Value Source: NWS Daily Summary

Daily Weather History Graph

Daily Weather History Graph

Search for Another Location

Airport:

Trip Planner

Search our weather history database for the weather conditions in past years. The results will help you decide how hot, cold, wet, or windy it might be!

Date:

Astronomy

Jan. 01, 2013 Rise Set
Actual Time 7:27 AM CST 5:07 PM CST
Civil Twilight 6:58 AM CST 5:36 PM CST
Nautical Twilight 6:26 AM CST 6:08 PM CST
Astronomical Twilight 5:54 AM CST 6:40 PM CST
Moon 9:32 PM CST (1/1) 9:45 AM CST (1/1)
Length of Visible Light 10h 37m
Length of Day
9h 39m
Waning Gibbous, 83% of the Moon is Illuminated
Jan 1
Waning Gibbous
Jan 4
Last Quarter
Jan 11
New
Jan 18
First Quarter
Jan 26
Full

Hourly Weather History & Observations

Time (CST) Temp. Windchill Dew Point Humidity Pressure Visibility Wind Dir Wind Speed Gust Speed Precip Events Conditions
12:50 AM 33.8 °F 27.7 °F 33.8 °F 100% 30.05 in 2.5 mi NE 6.9 mph - N/A   Overcast
12:52 AM 34.0 °F 27.2 °F 33.1 °F 96% 30.08 in 2.5 mi NE 8.1 mph - N/A   Overcast
1:04 AM 33.1 °F 26.1 °F 33.1 °F 100% 30.05 in 3.0 mi NNE 8.1 mph - N/A   Overcast
1:52 AM 33.1 °F 24.9 °F 32.0 °F 96% 30.08 in 3.0 mi NNE 10.4 mph - N/A   Overcast
2:00 AM 33.1 °F 24.4 °F 32.0 °F 96% 30.04 in 1.8 mi NNE 11.5 mph - N/A   Overcast
2:23 AM 33.1 °F 23.9 °F 32.0 °F 96% 30.04 in 2.5 mi NNE 12.7 mph - N/A   Overcast
2:41 AM 33.1 °F 24.9 °F 32.0 °F 96% 30.06 in 3.0 mi NNE 10.4 mph - N/A   Overcast
2:52 AM 33.1 °F 24.4 °F 32.0 °F 96% 30.08 in 4.0 mi NNE 11.5 mph - N/A   Overcast
3:52 AM 32.0 °F 22.5 °F 32.0 °F 100% 30.08 in 4.0 mi NNE 12.7 mph - N/A   Overcast
4:52 AM 32.0 °F 21.2 °F 30.9 °F 96% 30.08 in 5.0 mi NNE 16.1 mph - N/A   Overcast
5:48 AM 30.2 °F 20.2 °F 30.2 °F 100% 30.08 in 1.0 mi NNE 12.7 mph - N/A   Overcast
5:52 AM 30.9 °F 22.2 °F 30.9 °F 100% 30.12 in 1.0 mi NNE 10.4 mph - N/A   Overcast
6:52 AM 30.0 °F 21.7 °F 28.9 °F 96% 30.14 in 1.0 mi NNE 9.2 mph - N/A   Overcast
6:59 AM 30.0 °F 21.1 °F 28.9 °F 96% 30.14 in 4.0 mi North 10.4 mph - N/A   Overcast
7:02 AM 30.0 °F 22.4 °F 28.9 °F 96% 30.14 in 2.0 mi North 8.1 mph - N/A   Overcast
7:42 AM 30.0 °F 22.4 °F 28.9 °F 96% 30.14 in 2.0 mi NNE 8.1 mph - N/A   Overcast
7:52 AM 30.0 °F 21.7 °F 28.9 °F 96% 30.17 in 2.0 mi NNE 9.2 mph - N/A   Overcast
8:22 AM 28.9 °F 17.7 °F 28.0 °F 96% 30.10 in 2.0 mi North 15.0 mph - N/A   Overcast
8:52 AM 28.0 °F 17.0 °F 27.0 °F 96% 30.18 in 2.0 mi North 13.8 mph - N/A   Overcast
9:30 AM 27.0 °F 16.7 °F 25.0 °F 92% 30.17 in 2.0 mi North 11.5 mph - N/A   Overcast
9:52 AM 27.0 °F 16.1 °F 25.0 °F 92% 30.21 in 2.0 mi North 12.7 mph - N/A   Overcast
10:52 AM 27.0 °F 17.3 °F 24.1 °F 89% 30.23 in 2.0 mi North 10.4 mph - N/A   Overcast
10:59 AM 27.0 °F 17.3 °F 24.1 °F 89% 30.19 in 6.0 mi North 10.4 mph - N/A   Overcast
11:52 AM 27.0 °F 16.7 °F 24.1 °F 89% 30.21 in 8.0 mi North 11.5 mph - N/A   Overcast
12:43 PM 27.0 °F 18.0 °F 24.1 °F 89% 30.16 in 8.0 mi North 9.2 mph - N/A   Overcast
12:52 PM 27.0 °F 16.7 °F 24.1 °F 89% 30.20 in 7.0 mi NNW 11.5 mph - N/A   Overcast
1:03 PM 27.0 °F 16.7 °F 23.0 °F 85% 30.16 in 6.0 mi North 11.5 mph - N/A   Overcast
1:52 PM 27.0 °F 16.7 °F 23.0 °F 85% 30.20 in 7.0 mi North 11.5 mph - N/A   Overcast
2:05 PM 27.0 °F 16.7 °F 23.0 °F 85% 30.17 in 6.0 mi North 11.5 mph - N/A   Overcast
2:49 PM 26.6 °F 16.2 °F 21.2 °F 80% 30.18 in 8.0 mi North 11.5 mph - N/A   Overcast
2:52 PM 26.1 °F 16.2 °F 21.9 °F 84% 30.22 in 9.0 mi North 10.4 mph - N/A   Overcast
3:29 PM 26.1 °F 15.6 °F 21.9 °F 84% 30.19 in 8.0 mi NNW 11.5 mph - N/A   Overcast
3:52 PM 26.1 °F 16.2 °F 21.9 °F 84% 30.22 in 9.0 mi North 10.4 mph - N/A   Overcast
4:03 PM 26.1 °F 16.2 °F 21.9 °F 84% 30.19 in 9.0 mi North 10.4 mph - N/A   Overcast
4:49 PM 26.6 °F 18.2 °F 21.2 °F 80% 30.20 in 10.0 mi North 8.1 mph - N/A   Overcast
4:52 PM 26.1 °F 16.8 °F 21.0 °F 81% 30.24 in 10.0 mi North 9.2 mph - N/A   Overcast
5:52 PM 23.0 °F 14.7 °F 18.0 °F 81% 30.25 in 10.0 mi North 6.9 mph - N/A   Partly Cloudy
6:52 PM 21.0 °F 13.4 °F 18.0 °F 88% 30.25 in 9.0 mi North 5.8 mph - N/A   Clear
7:52 PM 19.0 °F 11.1 °F 15.1 °F 85% 30.27 in 8.0 mi NW 5.8 mph - N/A   Clear
8:52 PM 19.0 °F 11.1 °F 15.1 °F 85% 30.27 in 9.0 mi NNW 5.8 mph - N/A   Clear
9:52 PM 19.0 °F 11.1 °F 15.1 °F 85% 30.26 in 10.0 mi North 5.8 mph - N/A   Clear
10:52 PM 18.0 °F 12.7 °F 14.0 °F 84% 30.28 in 9.0 mi NW 3.5 mph - N/A   Clear
11:52 PM 17.1 °F - 12.9 °F 84% 30.27 in 9.0 mi Calm Calm - N/A   Clear